User: anonymous   Login
Location: Tyler Bend Campground
(35.9875°N, 92.7606°W)
Time: 11:07:05
(UTC-05:00)
Language:

CZ-2C R/B - Orbit

View from above orbital plane
View from above orbital plane
View from above satellite
View from above satellite

Ground track
Ground track

The orbit data is extracted from the following two-line orbital elements,

1 36089U 09061B   16207.88960648  .00000026  00000-0  17903-4 0  9999
2 36089  98.0511 218.2598 0081413 331.5570  93.8804 14.49588128354439
Epoch (UTC): 25 July 2016 21:21:02
Eccentricity: 0.0081413
inclination: 98.0511°
perigee height: 669 km
apogee height: 785 km
right ascension of ascending node: 218.2598°
argument of perigee: 331.5570°
revolutions per day: 14.49588128
mean anomaly at epoch: 93.8804°
orbit number at epoch: 35443

The dashed part of the orbit path shows where the satellite is in the earth's shadow,  

DLR